Location: Agadir Irigdalene
(31.2522°N, 8.7797°W)
Time: 05:12:47
(UTC+00:00)

CZ-2D R/B - Pass Details

Date: 01 December 2020
Orbit: 520 x 538 km, 97.4° (Epoch: 25 January)

Event Time Altitude Azimuth Distance (km) Brightness Sun altitude
Rises 19:20:10 0° 179° (S) 2,636 6.9 -22.6°
Reaches altitude 10° 19:22:18 10° 185° (S) 1,755 6.1 -23.1°
Maximum altitude 19:25:58 48° 260° (W) 694 4.2 -23.8°
Drops below altitude 10° 19:29:41 10° 336° (NNW) 1,776 6.0 -24.6°
Sets 19:31:52 0° 342° (NNW) 2,673 6.9 -25.1°
